Location: Banff
(51.1667°N, 115.5667°W)
Time: 07:39:04
(UTC+00:00)

S-56A Canister/Altair - Pass Details

Date: 03 December 2020
Orbit: 633 x 2499 km, 38.9° (Epoch: 21 January)

Event Time Altitude Azimuth Distance (km) Brightness Sun altitude
Rises 01:24:23 0° 219° (SW) 6,017 13.0 -15.9°
Reaches altitude 10° 01:29:15 10° 210° (SSW) 4,828 12.2 -16.6°
Maximum altitude 01:39:39 29° 158° (SSE) 2,973 10.4 -18.2°
Enters shadow 01:45:28 17° 114° (ESE) 3,249 10.2 -19.1°
Drops below altitude 10° 01:47:33 10° 104° (ESE) 3,626 - -19.4°
Sets 01:50:37 0° 93° (E) 4,341 - -19.9°
